Погода в Коробце

Россия / Смоленская область     54°31′05″N   33°28′55″E
темп.,
°C
ветер,
м/с
пор.,
м/с
влажн.,
%
обл.,
%
осадки,
мм/ч
давл.,
гПа
погр.,
м
28 сентября, вт
вт2800:00+6с3596100 0.0 102699
03:00+7ссв3892100 0.1 1026373
06:00+7ссв489171 0.0 1027490
09:00+8св4888100 0.0 1028586
12:00+8св4685100 0.1 1029568
15:00+8всв3680100 0.2 1031616
18:00+8всв3677100 0.1 1032358
21:00+7в3882100 0.1 1033459
29 сентября, ср
ср2900:00+5всв358741 0.0 103585
03:00+2всв34935 0.0 103662
06:00+1всв22935 0.0 103628
09:00+5всв237510 0.0 1036203
12:00+9в335536 0.0 1036892
15:00+11в224970 0.0 10351020
18:00+8св2265100 0.0 103510
21:00+5всв2274100 0.0 103510
30 сентября, чт
чт3000:00+4в118260 0.0 103610
03:00+3ссв0084100 0.0 103610
06:00+3св1186100 0.0 103610
09:00+6всв127463 0.0 1036141
12:00+11вюв22588 0.0 1036688
15:00+12юв12545 0.0 10351046
18:00+9юв22715 0.0 103410
21:00+6юв22865 0.0 103527
1 октября, пт
пт100:00+5ю229018 0.0 103625
03:00+5ю229113 0.0 103619
06:00+4ю22925 0.0 103612
09:00+7ю238025 0.0 1036177
12:00+12ю236424 0.0 1036762
15:00+13ю226039 0.0 10341058
18:00+9ю22775 0.0 103420
21:00+7ю228642 0.0 103517
2 октября, сб
сб200:00+6ю228911 0.0 103522
03:00+5ююз229235 0.0 103518
06:00+4ю22935 0.0 103425
09:00+8ю34825 0.0 1034176
12:00+12ю34620 0.0 1033752
15:00+14ю45541 0.0 10321073
18:00+10ююв33740 0.0 103243
21:00+8ю34845 0.0 103261